ADC007 SKCC-SVMD

Flight info

Callsign ADC007
Flight time 0h 42m
Altitude 12000
Route CUC DCT LUCHA/N0158F090 W34 LFA W8 EVG DCT BUVOR DCT DABLU
Aircraft PA24/L-SDGRY/S

Departure

Time 2026-04-18 15:15
Airport Camilo Daza International Airport (SKCC)

Arrival

Time 2026-04-18 15:57
Airport Alberto Carnevalli Airport (SVMD)
Time Latitude Longitude Altitude Speed Heading
2026-04-18 15:12 7.92301 -72.50898 1094 ft 0 kts 324°
2026-04-18 15:13 7.92361 -72.50936 1094 ft 30 kts 329°
2026-04-18 15:14 7.92642 -72.51099 1094 ft 63 kts 329°
2026-04-18 15:14 7.93126 -72.51399 1094 ft 100 kts 329°
2026-04-18 15:14 7.93803 -72.51808 1173 ft 119 kts 329°
2026-04-18 15:15 7.95307 -72.52635 1850 ft 135 kts 336°
2026-04-18 15:15 7.96214 -72.52982 2372 ft 129 kts 340°
2026-04-18 15:15 7.96951 -72.53252 3246 ft 101 kts 340°
2026-04-18 15:15 7.97566 -72.53479 3858 ft 92 kts 339°
2026-04-18 15:16 7.98129 -72.53691 4164 ft 80 kts 337°
2026-04-18 15:16 7.98693 -72.53915 4111 ft 88 kts 337°
2026-04-18 15:16 7.99227 -72.54141 4189 ft 88 kts 332°
2026-04-18 15:16 7.99717 -72.54492 4303 ft 81 kts 310°
2026-04-18 15:17 8.00130 -72.55097 4093 ft 134 kts 307°
2026-04-18 15:17 8.00903 -72.55866 4015 ft 166 kts 316°
2026-04-18 15:17 8.01710 -72.56747 4118 ft 180 kts 313°
2026-04-18 15:17 8.02801 -72.57476 3876 ft 197 kts 341°
2026-04-18 15:18 8.04191 -72.57557 3774 ft 181 kts 13°
2026-04-18 15:18 8.05037 -72.57316 4683 ft 139 kts 17°
2026-04-18 15:18 8.05823 -72.57072 968 ft 259 kts 20°
2026-04-18 15:18 8.07321 -72.56479 1668 ft 207 kts 24°
2026-04-18 15:19 8.08447 -72.55837 2391 ft 162 kts 33°
2026-04-18 15:19 8.09269 -72.55060 2555 ft 163 kts 51°
2026-04-18 15:19 8.09777 -72.54029 2667 ft 165 kts 71°
2026-04-18 15:19 8.10036 -72.53022 3224 ft 139 kts 78°
2026-04-18 15:20 8.10142 -72.52069 3492 ft 137 kts 86°
2026-04-18 15:20 8.10097 -72.51071 3475 ft 156 kts 98°
2026-04-18 15:20 8.09795 -72.49972 3495 ft 163 kts 111°
2026-04-18 15:20 8.09368 -72.49121 3925 ft 116 kts 118°
2026-04-18 15:21 8.09009 -72.48475 3915 ft 96 kts 118°
2026-04-18 15:21 8.08699 -72.47892 3760 ft 99 kts 115°
2026-04-18 15:21 8.08409 -72.47240 3715 ft 98 kts 111°
2026-04-18 15:21 8.08199 -72.46625 3695 ft 93 kts 104°
2026-04-18 15:22 8.08059 -72.45946 3559 ft 101 kts 97°
2026-04-18 15:22 8.08009 -72.45278 3565 ft 92 kts 88°
2026-04-18 15:22 8.08062 -72.44625 3433 ft 98 kts 80°
2026-04-18 15:22 8.08149 -72.44023 3452 ft 80 kts 77°
2026-04-18 15:23 8.08251 -72.43387 3296 ft 87 kts 78°
2026-04-18 15:23 8.08313 -72.43006 3284 ft 83 kts 76°
2026-04-18 15:23 8.08429 -72.42371 3212 ft 89 kts 77°
2026-04-18 15:23 8.08540 -72.41780 3229 ft 85 kts 76°
2026-04-18 15:24 8.08664 -72.41175 3214 ft 92 kts 75°
2026-04-18 15:24 8.08810 -72.40516 3446 ft 100 kts 75°
2026-04-18 15:24 8.08977 -72.39804 3767 ft 108 kts 75°
2026-04-18 15:24 8.09159 -72.39048 4170 ft 115 kts 75°
2026-04-18 15:25 8.09359 -72.38238 4646 ft 125 kts 75°
2026-04-18 15:25 8.09583 -72.37344 5080 ft 139 kts 75°
2026-04-18 15:25 8.09840 -72.36334 5417 ft 159 kts 75°
2026-04-18 15:25 8.09969 -72.35833 5515 ft 170 kts 75°
2026-04-18 15:26 8.10202 -72.34926 5707 ft 183 kts 75°
2026-04-18 15:26 8.10532 -72.33645 6014 ft 193 kts 75°
2026-04-18 15:26 8.10875 -72.32319 6353 ft 198 kts 75°
2026-04-18 15:26 8.11227 -72.30963 6708 ft 201 kts 74°
2026-04-18 15:27 8.11912 -72.29743 7024 ft 203 kts 44°
2026-04-18 15:27 8.12715 -72.29257 7226 ft 204 kts 20°
2026-04-18 15:27 8.14124 -72.29149 7571 ft 204 kts 357°
2026-04-18 15:27 8.15320 -72.29036 7875 ft 205 kts 13°
2026-04-18 15:28 8.16669 -72.28586 8244 ft 204 kts 14°
2026-04-18 15:28 8.18081 -72.28460 8603 ft 204 kts
2026-04-18 15:28 8.19432 -72.28034 8954 ft 204 kts 22°
2026-04-18 15:28 8.20808 -72.27705 9309 ft 204 kts
2026-04-18 15:29 8.22172 -72.27317 9661 ft 204 kts 22°
2026-04-18 15:29 8.23543 -72.26995 9989 ft 205 kts 359°
2026-04-18 15:29 8.24946 -72.27098 10337 ft 204 kts
2026-04-18 15:29 8.26352 -72.26917 10689 ft 205 kts
2026-04-18 15:30 8.27750 -72.26628 11040 ft 205 kts
2026-04-18 15:30 8.28692 -72.26517 11271 ft 204 kts
2026-04-18 15:30 8.30079 -72.26192 11603 ft 207 kts 21°
2026-04-18 15:30 8.31341 -72.25483 11945 ft 207 kts 30°
2026-04-18 15:31 8.32547 -72.24672 12168 ft 212 kts 32°
2026-04-18 15:31 8.33806 -72.23804 12121 ft 225 kts 33°
2026-04-18 15:31 8.35107 -72.22909 12107 ft 232 kts 33°
2026-04-18 15:31 8.36224 -72.22140 12103 ft 236 kts 33°
2026-04-18 15:32 8.37475 -72.21051 12092 ft 241 kts 51°
2026-04-18 15:32 8.38138 -72.19498 12109 ft 243 kts 73°
2026-04-18 15:32 8.38472 -72.17808 12105 ft 246 kts 79°
2026-04-18 15:32 8.38719 -72.16097 12103 ft 247 kts 81°
2026-04-18 15:33 8.38901 -72.14712 12103 ft 248 kts 81°
2026-04-18 15:33 8.39124 -72.12987 12102 ft 248 kts 82°
2026-04-18 15:33 8.39348 -72.11251 12102 ft 248 kts 82°
2026-04-18 15:33 8.39460 -72.09532 12103 ft 249 kts 90°
2026-04-18 15:34 8.39171 -72.07809 12106 ft 250 kts 105°
2026-04-18 15:34 8.38803 -72.06675 12105 ft 250 kts 109°
2026-04-18 15:34 8.38189 -72.05033 12101 ft 250 kts 111°
2026-04-18 15:34 8.37545 -72.03398 12100 ft 250 kts 111°
2026-04-18 15:35 8.36893 -72.01763 12099 ft 250 kts 111°
2026-04-18 15:35 8.36240 -72.00130 12109 ft 250 kts 111°
2026-04-18 15:35 8.35594 -71.98514 12232 ft 245 kts 111°
2026-04-18 15:35 8.35081 -71.97232 12379 ft 236 kts 111°
2026-04-18 15:36 8.34454 -71.95654 12536 ft 225 kts 111°
2026-04-18 15:36 8.33876 -71.94202 12653 ft 220 kts 111°
2026-04-18 15:36 8.33389 -71.92978 12740 ft 217 kts 112°
2026-04-18 15:36 8.32828 -71.91570 12832 ft 215 kts 111°
2026-04-18 15:37 8.32271 -71.90171 12916 ft 214 kts 111°
2026-04-18 15:37 8.31720 -71.88785 12994 ft 214 kts 111°
2026-04-18 15:37 8.31166 -71.87393 13070 ft 214 kts 111°
2026-04-18 15:37 8.30611 -71.85998 13136 ft 214 kts 112°
2026-04-18 15:38 8.30113 -71.84746 13117 ft 218 kts 112°
2026-04-18 15:38 8.29620 -71.83289 13098 ft 220 kts 99°
2026-04-18 15:38 8.29610 -71.81763 13109 ft 220 kts 84°
2026-04-18 15:38 8.29789 -71.80200 13104 ft 221 kts 81°
2026-04-18 15:39 8.30003 -71.78675 13102 ft 222 kts 81°
2026-04-18 15:39 8.30228 -71.77131 13101 ft 223 kts 81°
2026-04-18 15:39 8.30455 -71.75585 13100 ft 223 kts 80°
2026-04-18 15:39 8.30685 -71.74032 13100 ft 223 kts 81°
2026-04-18 15:40 8.30924 -71.72489 13100 ft 222 kts 81°
2026-04-18 15:40 8.31156 -71.71067 13094 ft 222 kts 80°
2026-04-18 15:40 8.31442 -71.69720 13085 ft 222 kts 71°
2026-04-18 15:40 8.31486 -71.69601 13085 ft 222 kts 69°
2026-04-18 15:41 8.32190 -71.68245 13090 ft 221 kts 57°
2026-04-18 15:41 8.33055 -71.66961 13087 ft 221 kts 54°
2026-04-18 15:41 8.33955 -71.65696 13019 ft 224 kts 53°
2026-04-18 15:41 8.34618 -71.64777 12857 ft 223 kts 53°
2026-04-18 15:42 8.35521 -71.63531 12593 ft 216 kts 53°
2026-04-18 15:42 8.36394 -71.62332 12213 ft 207 kts 53°
2026-04-18 15:42 8.37213 -71.61213 11944 ft 190 kts 53°
2026-04-18 15:42 8.37852 -71.60344 11966 ft 170 kts 53°
2026-04-18 15:43 8.38521 -71.59436 11911 ft 156 kts 53°
2026-04-18 15:43 8.39162 -71.58565 11576 ft 159 kts 53°
2026-04-18 15:43 8.39561 -71.58026 11346 ft 159 kts 53°
2026-04-18 15:43 8.40228 -71.57128 10966 ft 160 kts 53°
2026-04-18 15:44 8.40897 -71.56231 10592 ft 160 kts 53°
2026-04-18 15:44 8.41560 -71.55345 10228 ft 160 kts 53°
2026-04-18 15:44 8.42115 -71.54604 9927 ft 159 kts 53°
2026-04-18 15:44 8.42784 -71.53714 9569 ft 159 kts 53°
2026-04-18 15:45 8.43452 -71.52824 9215 ft 159 kts 53°
2026-04-18 15:45 8.43978 -71.52122 8938 ft 158 kts 53°
2026-04-18 15:45 8.44603 -71.51286 8613 ft 158 kts 53°
2026-04-18 15:45 8.45241 -71.50429 8388 ft 150 kts 53°
2026-04-18 15:46 8.45813 -71.49659 8189 ft 143 kts 53°
2026-04-18 15:46 8.46330 -71.48900 7968 ft 139 kts 62°
2026-04-18 15:46 8.46687 -71.48001 7721 ft 137 kts 70°
2026-04-18 15:46 8.46934 -71.47279 7520 ft 136 kts 71°
2026-04-18 15:47 8.47195 -71.46506 7302 ft 135 kts 71°
2026-04-18 15:47 8.47473 -71.45607 7048 ft 134 kts 76°
2026-04-18 15:47 8.47641 -71.44680 6793 ft 134 kts 81°
2026-04-18 15:47 8.47782 -71.43752 6544 ft 134 kts 81°
2026-04-18 15:48 8.47898 -71.42987 6341 ft 134 kts 81°
2026-04-18 15:48 8.48030 -71.42052 6096 ft 134 kts 84°
2026-04-18 15:48 8.48089 -71.41115 5857 ft 134 kts 87°
2026-04-18 15:48 8.48134 -71.40175 5620 ft 134 kts 87°
2026-04-18 15:49 8.48178 -71.39242 5434 ft 131 kts 87°
2026-04-18 15:49 8.48216 -71.38436 5480 ft 131 kts 87°
2026-04-18 15:49 8.48368 -71.37501 5497 ft 139 kts 76°
2026-04-18 15:49 8.48612 -71.36533 5588 ft 153 kts 75°
2026-04-18 15:50 8.48924 -71.35415 5465 ft 174 kts 71°
2026-04-18 15:50 8.49425 -71.34301 5497 ft 173 kts 63°
2026-04-18 15:50 8.49731 -71.33697 5499 ft 173 kts 62°
2026-04-18 15:50 8.50267 -71.32664 5486 ft 157 kts 62°
2026-04-18 15:51 8.50747 -71.31741 5477 ft 139 kts 62°
2026-04-18 15:51 8.51172 -71.30927 5464 ft 123 kts 63°
2026-04-18 15:51 8.51539 -71.30195 5403 ft 108 kts 63°
2026-04-18 15:51 8.51856 -71.29556 5271 ft 97 kts 63°
2026-04-18 15:52 8.52143 -71.28977 5113 ft 90 kts 63°
2026-04-18 15:52 8.52347 -71.28565 4969 ft 89 kts 63°
2026-04-18 15:52 8.52558 -71.28091 4800 ft 89 kts 68°
2026-04-18 15:52 8.52786 -71.27506 4614 ft 89 kts 68°
2026-04-18 15:53 8.52896 -71.27223 4567 ft 85 kts 68°
2026-04-18 15:53 8.53071 -71.26665 4545 ft 83 kts 72°
2026-04-18 15:53 8.53235 -71.26053 4666 ft 102 kts 73°
2026-04-18 15:53 8.53435 -71.25265 4700 ft 130 kts 76°
2026-04-18 15:54 8.53599 -71.24608 4651 ft 140 kts 75°
2026-04-18 15:54 8.53816 -71.23728 4606 ft 146 kts 76°
2026-04-18 15:54 8.54044 -71.22859 4591 ft 147 kts 73°
2026-04-18 15:54 8.54283 -71.22120 4586 ft 147 kts 70°
2026-04-18 15:55 8.54688 -71.21213 4732 ft 138 kts 62°
2026-04-18 15:55 8.54990 -71.20661 4774 ft 139 kts 59°
2026-04-18 15:55 8.55499 -71.19835 4800 ft 135 kts 59°
2026-04-18 15:55 8.55758 -71.19376 4825 ft 129 kts 60°
2026-04-18 15:56 8.56167 -71.18643 4873 ft 119 kts 59°
2026-04-18 15:56 8.56599 -71.17974 4945 ft 115 kts 50°
2026-04-18 15:56 8.57260 -71.17486 4861 ft 115 kts 40°
2026-04-18 15:56 8.57788 -71.16903 4848 ft 112 kts 58°
2026-04-18 15:57 8.58161 -71.16241 4884 ft 99 kts 60°
2026-04-18 15:57 8.58382 -71.15846 4958 ft 21 kts 59°
2026-04-18 15:57 8.58395 -71.15824 4962 ft 0 kts 58°
2026-04-18 15:57 8.58397 -71.15822 4962 ft 3 kts 58°
2026-04-18 15:58 8.58435 -71.15769 4971 ft 9 kts 53°
2026-04-18 15:58 8.58449 -71.15755 4974 ft 6 kts 31°
2026-04-18 15:58 8.58482 -71.15760 4976 ft 6 kts 323°
2026-04-18 15:58 8.58455 -71.15825 4964 ft 16 kts 238°
2026-04-18 15:59 8.58418 -71.15895 4954 ft 13 kts 236°
2026-04-18 15:59 8.58390 -71.15954 4944 ft 8 kts 265°
2026-04-18 15:59 8.58356 -71.16002 4935 ft 7 kts 196°
2026-04-18 15:59 8.58322 -71.16026 4929 ft 5 kts 334°
2026-04-18 16:00 8.58355 -71.16044 4929 ft 0 kts 333°